Location: ??????
(56.0120°N, 39.1740°E)
Time: 08:53:11
(UTC+00:00)

ADEOS - Pass Details

Date: 14 April 2026
Orbit: 790 x 791 km, 98.8° (Epoch: 9 May)

Event Time Altitude Azimuth Distance (km) Brightness Sun altitude
Exits shadow 17:22:31 - 159° (SSE) 3,109 6.2 -7.8°
Reaches altitude 10° 17:24:24 10° 159° (SSE) 2,355 5.6 -8.0°
Maximum altitude 17:29:37 87° 71° (ENE) 802 3.6 -8.6°
Drops below altitude 10° 17:34:52 10° 344° (NNW) 2,372 6.8 -9.2°
Sets 17:37:12 0° 344° (NNW) 3,305 7.6 -9.5°
